Adana Incirlik AFB, Turkey

1:34 AM +03 on March 27, 2017 (GMT +0300)
Incirlik Air Base

Weather History for LTAG - March, 2013

Change the Weather History Date:

Friday, March 15, 2013

  Actual Average Record
Temperature  
Mean Temperature 68 °F -  
Max Temperature 81 °F 71 °F 81 °F (2013)
Min Temperature 55 °F 51 °F 39 °F (2009)
Cooling Degree Days 3    
Growing Degree Days 18 (Base 50)    
Moisture  
Dew Point 47 °F    
Average Humidity 46    
Maximum Humidity 77    
Minimum Humidity 17    
Precipitation  
Precipitation 0.00 in - - ()
Sea Level Pressure  
Sea Level Pressure 29.76 in    
Wind  
Wind Speed 9 mph ()    
Max Wind Speed 18 mph    
Max Gust Speed -    
Visibility 6.2 miles    
Events      
Averages and records for this station are not official NWS values.
T = Trace of Precipitation, MM = Missing Value Source: Averaged Metar Reports

Daily Weather History Graph

Daily Weather History Graph

Search for Another Location

Airport or City:

Trip Planner

Search our weather history database for the weather conditions in past years. The results will help you decide how hot, cold, wet, or windy it might be!

Date:

Astronomy

Mar. 15, 2013 Rise Set
Actual Time 5:49 AM EET 5:45 PM EET
Civil Twilight 5:23 AM EET 6:11 PM EET
Nautical Twilight 4:53 AM EET 6:41 PM EET
Astronomical Twilight 4:23 AM EET 7:12 PM EET
Moon 7:32 AM EET (3/15) 9:33 PM EET (3/15)
Length of Visible Light 12h 47m
Length of Day
11h 56m
Waxing Crescent, 13% of the Moon is Illuminated
Mar 15
Waxing Crescent
Mar 19
First Quarter
Mar 27
Full
Apr 3
Last Quarter
Apr 10
New

Hourly Weather History & Observations

Time (EET) Temp. Dew Point Humidity Pressure Visibility Wind Dir Wind Speed Gust Speed Precip Events Conditions
12:20 AM 59.0 °F 51.8 °F 77% 29.89 in 6.2 mi NE 8.1 mph - N/A   Mostly Cloudy
12:50 AM 60.8 °F 50.0 °F 68% 29.89 in 6.2 mi North 8.1 mph - N/A   Mostly Cloudy
1:20 AM 60.8 °F 48.2 °F 63% 29.89 in 6.2 mi NNW 5.8 mph - N/A   Mostly Cloudy
1:50 AM 60.8 °F 46.4 °F 59% 29.89 in 6.2 mi NNE 11.5 mph - N/A   Mostly Cloudy
2:00 AM 60 °F 47 °F 53% 29.88 in 6 mi NNE 11.5 mph - -   Scattered Clouds
2:20 AM 59.0 °F 46.4 °F 63% 29.89 in 6.2 mi NNW 2.3 mph - N/A   Mostly Cloudy
3:50 AM 60.8 °F 46.4 °F 59% 29.86 in 6.2 mi NNE 6.9 mph - N/A   Mostly Cloudy
4:20 AM 60.8 °F 44.6 °F 55% 29.86 in 6.2 mi NNE 10.4 mph - N/A   Mostly Cloudy
4:50 AM 62.6 °F 42.8 °F 48% 29.86 in 6.2 mi NNE 11.5 mph - N/A   Mostly Cloudy
5:20 AM 62.6 °F 42.8 °F 48% 29.86 in 6.2 mi NNE 13.8 mph - N/A   Mostly Cloudy
5:50 AM 62.6 °F 42.8 °F 48% 29.83 in 6.2 mi NNE 12.7 mph - N/A   Mostly Cloudy
6:20 AM 64.4 °F 42.8 °F 45% 29.83 in 6.2 mi North 11.5 mph - N/A   Mostly Cloudy
7:20 AM 68.0 °F 42.8 °F 40% 29.83 in 6.2 mi NE 13.8 mph - N/A   Mostly Cloudy
7:50 AM 69.8 °F 42.8 °F 38% 29.83 in 6.2 mi NE 18.4 mph - N/A   Mostly Cloudy
8:00 AM 69 °F 43 °F 28% 29.83 in 6 mi NE 18.4 mph - -   Scattered Clouds
8:20 AM 69.8 °F 42.8 °F 38% 29.83 in 6.2 mi NNE 18.4 mph - N/A   Mostly Cloudy
8:50 AM 71.6 °F 44.6 °F 38% 29.83 in 6.2 mi NNE 16.1 mph - N/A   Mostly Cloudy
9:20 AM 73.4 °F 44.6 °F 36% 29.83 in 6.2 mi NNE 17.3 mph - N/A   Mostly Cloudy
9:50 AM 73.4 °F 46.4 °F 38% 29.83 in 6.2 mi NNE 17.3 mph - N/A   Mostly Cloudy
10:20 AM 77.0 °F 46.4 °F 34% 29.80 in 6.2 mi NE 17.3 mph - N/A   Mostly Cloudy
10:50 AM 77.0 °F 46.4 °F 34% 29.80 in 6.2 mi NE 17.3 mph - N/A   Mostly Cloudy
11:20 AM 78.8 °F 48.2 °F 34% 29.80 in 6.2 mi NE 13.8 mph - N/A   Mostly Cloudy
11:50 AM 78.8 °F 50.0 °F 36% 29.77 in 6.2 mi NE 13.8 mph - N/A   Mostly Cloudy
12:20 PM 80.6 °F 46.4 °F 30% 29.77 in 6.2 mi East 8.1 mph - N/A   Mostly Cloudy
12:50 PM 82.4 °F 44.6 °F 26% 29.74 in 6.2 mi East 6.9 mph - N/A   Mostly Cloudy
1:20 PM 80.6 °F 41.0 °F 24% 29.74 in 6.2 mi East 9.2 mph - N/A   Mostly Cloudy
1:50 PM 80.6 °F 44.6 °F 28% 29.74 in 6.2 mi East 4.6 mph - N/A   Mostly Cloudy
2:00 PM 81 °F 44 °F 17% 29.74 in 12 mi East 4.6 mph - -   Scattered Clouds
2:20 PM 80.6 °F 46.4 °F 30% 29.71 in 6.2 mi East 4.6 mph - N/A   Mostly Cloudy
2:50 PM 80.6 °F 44.6 °F 28% 29.71 in 6.2 mi East 3.5 mph - N/A   Mostly Cloudy
3:20 PM 77.0 °F 55.4 °F 47% 29.71 in 6.2 mi NNE 3.5 mph - N/A   Mostly Cloudy
3:50 PM 78.8 °F 48.2 °F 34% 29.71 in 6.2 mi ESE 3.5 mph - N/A   Mostly Cloudy
4:20 PM 77.0 °F 44.6 °F 32% 29.71 in 6.2 mi ESE 5.8 mph - N/A   Mostly Cloudy
4:50 PM 77.0 °F 44.6 °F 32% 29.68 in 6.2 mi ESE 4.6 mph - N/A   Mostly Cloudy
5:20 PM 69.8 °F 55.4 °F 60% 29.68 in 6.2 mi NNE 6.9 mph - N/A   Mostly Cloudy
5:50 PM 68.0 °F 55.4 °F 64% 29.68 in 6.2 mi North 6.9 mph - N/A   Mostly Cloudy
6:20 PM 68.0 °F 51.8 °F 56% 29.68 in 6.2 mi North 3.5 mph - N/A   Mostly Cloudy
6:50 PM 68.0 °F 51.8 °F 56% 29.68 in 6.2 mi North 3.5 mph - N/A   Mostly Cloudy
7:20 PM 66.2 °F 51.8 °F 60% 29.68 in 6.2 mi NNE 6.9 mph - N/A   Mostly Cloudy
7:50 PM 64.4 °F 51.8 °F 64% 29.68 in 6.2 mi NE 5.8 mph - N/A   Mostly Cloudy
8:00 PM 65 °F 51 °F 50% 29.68 in 6 mi NE 5.8 mph - -   Scattered Clouds
8:20 PM 64.4 °F 50.0 °F 59% 29.68 in 6.2 mi NNW 5.8 mph - N/A   Mostly Cloudy
8:50 PM 66.2 °F 50.0 °F 56% 29.68 in 6.2 mi NW 11.5 mph - N/A   Mostly Cloudy
9:20 PM 66.2 °F 51.8 °F 60% 29.68 in 6.2 mi NNW 9.2 mph - N/A   Mostly Cloudy
9:50 PM 64.4 °F 50.0 °F 59% 29.62 in 6.2 mi NE 11.5 mph - N/A   Mostly Cloudy
10:20 PM 68.0 °F 48.2 °F 49% 29.65 in 6.2 mi NNE 6.9 mph - N/A   Mostly Cloudy
10:50 PM 64.4 °F 50.0 °F 59% 29.62 in 6.2 mi NNW 4.6 mph - N/A   Mostly Cloudy
11:20 PM 64.4 °F 48.2 °F 56% 29.62 in 3.7 mi NW 3.5 mph - N/A   Mostly Cloudy
11:50 PM 64.4 °F 50.0 °F 59% 29.62 in 3.7 mi NW 6.9 mph - N/A   Mostly Cloudy